Regional Weather Roundup
Issued by NWS Charleston, WV

Home | Current Version | Previous Version | Text Only | Print | Product List | Glossary Off
Versions: 1 2 3 4 5 6 7 8 9 10 11 12 13 14 15 16 17 18 19 20 21 22 23 24 25 26 27 28 29 30 31 32 33 34 35 36 37 38 39 40 41 42 43 44 45 46 47 48 49 50

000
ASUS41 KRLX 210010
RWRRLX
West Virginia Regional Weather Roundup
National Weather Service Charleston WV
700 PM EST THU NOV 20 2014

Note: "fair" indicates few or no clouds below 12,000 feet with no
significant weather and/or obstructions to visibility.

WVZ003-210100-
Northern Panhandle of West Virginia

CITY           SKY/WX    TMP DP  RH WIND       PRES   REMARKS
WHEELING       CLEAR     24  11  57 W12       30.08R
$$

WVZ009-210100-
Northwest West Virginia

CITY           SKY/WX    TMP DP  RH WIND       PRES   REMARKS
PARKERSBURG    CLEAR     28  13  53 W8        30.16R
$$

WVZ006-210100-
Western West Virginia

CITY           SKY/WX    TMP DP  RH WIND       PRES   REMARKS
HUNTINGTON     CLEAR     30  16  56 W6        30.16R
$$

WVZ015-210100-
West Central West Virginia

CITY           SKY/WX    TMP DP  RH WIND       PRES   REMARKS
CHARLESTON     CLEAR     32  15  49 W7        30.14R
$$

WVZ022-031-210100-
North Central West Virginia

CITY           SKY/WX    TMP DP  RH WIND       PRES   REMARKS
CLARKSBURG     CLEAR     28  13  53 W9        30.08R
MORGANTOWN     CLEAR     30  11  45 W9        30.08R
$$

WVZ025-035-042-045-210100-
Southern West Virginia

CITY           SKY/WX    TMP DP  RH WIND       PRES   REMARKS
BECKLEY        CLEAR     33  15  47 W7        30.04R
LOGAN            N/A     34  16  47 NW6       30.11R
BLUEFIELD      CLEAR     36  13  38 W9G21     30.04R
LEWISBURG      CLEAR     36  13  38 W6        30.03R
$$

WVZ047-210100-
Northern Mountains of West Virginia

CITY           SKY/WX    TMP DP  RH WIND       PRES   REMARKS
ELKINS         CLEAR     28  17  63 W9G17     30.04R
$$

WVZ052-210100-
Eastern Panhandle of West Virginia

CITY           SKY/WX    TMP DP  RH WIND       PRES   REMARKS
MARTINSBURG    CLEAR     37   9  31 W17G24    30.02R
PETERSBURG       N/A     36  14  39 W13G22    30.04R
$$


USA.gov is the U.S. government's official web portal to all federal, state and local government web resources and services.